STARLINK-11343, 62017

Orbit data source: Space-Track

STARLINK-11343, 62017 is a payload satellite owned by SpaceX/Seattle (US) in LEO that was launched on Mon, 18 Nov 2024 UTC via an FALCON 9 launch vehicle from the Air Force Western Test Range (AFWTR). Payload-class satellites include a variety of spacecraft equipped with specific instruments for various scientific and technological missions. These include communications satellites like Starlink; space stations such as the ISS; scientific satellites like the Hubble; Earth observation satellites from companies like Planet Labs, Umbra, and HawkEye 360; GPS; miniature CubeSats for education and research; and military/defense satellites.

Loading next visibility...
Identifier
62017, 2024-213K
Orbit
LEO
Last TLE update
18 hours ago
Origin
Manufacturer
SpaceX/Seattle
Mission
Operational Commercial Communications
Bus & Motor
STARLINK V2M, Unknown motor
Mass
730 kg wet, ~700 kg dry
Launch date (UTC)
2024-11-18 (7 months ago)
Launch vehicle
FALCON 9
Launch site
Air Force Western Test Range (AFWTR)
Object type
Payload
Rocket body
Debris
Shape & HBR
Box + 2 Pan, 29 m
Radar Cross Section
36.964 m², Large (>1 m²)

Expand to show TLE details & history

TLE from 18 hours ago
0 STARLINK-11343
1 62017U 24213K   25181.43174971  .00110555  00000-0  90460-3 0  9990
2 62017  53.1572 204.9213 0001320  92.5050 267.6119 15.69727786 35298
Epoch: 2025-06-30T10:21Z
TLE epoch observation values (Epoch: 2025-06-30T10:21:43.174Z)
Latitude
-0.00005°
Longitude
130.74973°
Altitude
360.628 km
Speed
7.694 km/s
True Right ascension
13h 39m 41s
True Declination
0° 00' 00"
Sunlit
Object was in daylight at epoch
Visualization orbit readout
Latitude
3.15879°
Longitude
-55.21417°
Altitude
359.637 km
Speed
7.695 km/s
Apparent Right ascension
02h 13m 01s
Apparent Declination
-18° 24' 05"
Sunlit
Object is in daylight
Visualization observer readout
Local Sidereal Time
15:32:20
Azimuth
44.227° NE
Elevation
-62.521°
Doppler factor
1
Orbital elements
Apogee altitude
360.826 km
Perigee altitude
359.048 km
Semi-major axis
6,738.074 km
Eccentricity
0.00013
Inclination
53.1572°
RAAN
204.9213°
Arg. of periapsis
92.505°
True anomaly
Unknown
Mean anomaly
267.6119°
Eccentric anomaly
Unknown
Mean motion
3.92409 °/min
Orbital period
91.74 mins
BSTAR
0.0009046
Loading maneuver chart data...
Loading SW <> Apogee altitude chart data...
Loading historical data...
Loading historical data...
Loading historical data...
Loading historical data...
Loading historical data...
Loading historical data...
Loading historical data...

STARLINK-11343 Visibility forecast

Observer location: undefined°, undefined°

Span
Click to sort rows by Start time (UTC) header in descending order
Start Az.
Max El. time (UTC)
Max El. Az.
Max El.
End time (UTC)
End Az.
4 mins2025-07-01 04:54:57.391Z265.429° W2025-07-01 04:56:57.391Z337.248° NNW30.383°2025-07-01 04:58:57.391Z30.908° NE
4 mins2025-07-01 11:19:57.391Z292.867° NW2025-07-01 11:20:57.391Z260.901° W37.775°2025-07-01 11:23:57.391Z144.368° SSE
4 mins2025-07-02 03:48:57.391Z212.89° SW2025-07-02 03:49:57.391Z154.83° SSE43.065°2025-07-02 03:52:57.391Z54.161° ENE
|